Location: Newark
(47.5500°N, 8.6167°E)
Time: 19:26:31
(UTC+00:00)

Envisat - Pass Details

Date: 26 January 2020
Orbit: 764 x 766 km, 98.1° (Epoch: 17 February)

Event Time Altitude Azimuth Distance (km) Brightness Sun altitude
Rises 05:33:23 0° 20° (NNE) 3,243 6.3 -14.5°
Reaches altitude 10° 05:35:52 10° 28° (NNE) 2,312 5.7 -14.1°
Maximum altitude 05:40:36 38° 97° (E) 1,160 4.6 -13.3°
Drops below altitude 10° 05:45:18 10° 165° (SSE) 2,295 5.9 -12.6°
Sets 05:47:45 0° 173° (S) 3,216 6.5 -12.2°
